Location: Bayshore Village Mobile Home Park
(26.6945°N, 81.8642°W)
Time: 22:11:58
(UTC+00:00)

Cosmos 2322 Rocket - Pass Details

Date: 17 June 2021
Orbit: 833 x 850 km, 71.0° (Epoch: 31 July)

Event Time Altitude Azimuth Distance (km) Brightness Sun altitude
Rises 02:43:13 0° 224° (SW) 3,393 5.3 -26.0°
Reaches altitude 10° 02:45:58 10° 235° (SW) 2,462 4.7 -26.4°
Maximum altitude 02:50:50 29° 294° (WNW) 1,496 4.0 -27.1°
Drops below altitude 10° 02:55:44 10° 354° (N) 2,476 5.3 -27.8°
Sets 02:58:31 0° 5° (N) 3,414 6.0 -28.2°
